CW2303 Weather Reports


Display with metric or nautical units.
time (UTC)temp
F
wind
direction
speed
MPH
gust
MPH
rain 1hr
in
rain 24hr
in
rain mn
in
humidity
%
barometer
mb
20260904092042 75 0 0.0 2.0 0.00 0.00 0.00 80 1015.8
20260904091605 75 139 0.0 2.0 0.00 0.00 0.00 80 1015.9
20260904091043 75 130 0.0 2.0 0.00 0.00 0.00 80 1015.9
20260904090541 75 139 0.0 1.0 0.00 0.00 0.00 81 1015.9
20260904090104 75 0 0.0 1.0 0.00 0.00 0.00 80 1015.8
20260904085541 75 148 0.0 1.0 0.00 0.00 0.00 80 1015.7
20260904085043 75 0 0.0 1.0 0.00 0.00 0.00 80 1015.7
20260904084600 75 140 0.0 1.0 0.00 0.00 0.00 80 1015.6
20260904084042 75 0 0.0 0.0 0.00 0.00 0.00 80 1015.6
20260904083543 75 0 0.0 0.0 0.00 0.00 0.00 80 1015.7
20260904083105 76 148 0.0 0.0 0.00 0.00 0.00 80 1015.6
20260904082544 76 0 0.0 0.0 0.00 0.00 0.00 79 1015.6
20260904082042 76 0 0.0 3.0 0.00 0.00 0.00 79 1015.6
20260904081602 76 0 0.0 3.0 0.00 0.00 0.00 79 1015.6
20260904081041 76 130 0.0 2.0 0.00 0.00 0.00 78 1015.6
20260904080542 76 209 0.0 2.0 0.00 0.00 0.00 78 1015.5
20260904080101 76 0 0.0 0.0 0.00 0.00 0.00 78 1015.5
20260904075543 76 0 0.0 2.0 0.00 0.00 0.00 78 1015.6
20260904075042 76 0 0.0 2.0 0.00 0.00 0.00 78 1015.5
20260904074603 76 163 0.0 4.0 0.00 0.00 0.00 77 1015.6
20260904074044 77 0 0.0 4.0 0.00 0.00 0.00 77 1015.6
20260904073542 76 0 0.0 3.0 0.00 0.00 0.00 77 1015.6
20260904073103 77 0 0.0 3.0 0.00 0.00 0.00 77 1015.6
20260904072544 77 0 0.0 3.0 0.00 0.00 0.00 77 1015.6
20260904072045 77 0 0.0 3.0 0.00 0.00 0.00 76 1015.5
20260904071606 77 142 0.0 3.0 0.00 0.00 0.00 76 1015.5
20260904071044 77 163 0.0 2.0 0.00 0.00 0.00 76 1015.4
20260904070543 77 175 0.0 2.0 0.00 0.00 0.00 76 1015.5
20260904070114 77 0 0.0 4.0 0.00 0.00 0.00 76 1015.5
20260904065542 77 173 0.0 4.0 0.00 0.00 0.00 75 1015.5
20260904065042 77 146 1.0 4.0 0.00 0.00 0.00 76 1015.5
20260904064605 77 148 0.0 3.0 0.00 0.00 0.00 75 1015.6
20260904064042 77 0 0.0 4.0 0.00 0.00 0.00 75 1015.6
20260904063542 77 157 0.0 4.0 0.00 0.00 0.00 75 1015.6
20260904063118 77 175 0.0 2.0 0.00 0.00 0.00 74 1015.5
20260904062542 77 158 0.0 6.0 0.00 0.00 0.00 74 1015.5
20260904062042 77 143 0.0 6.0 0.00 0.00 0.00 74 1015.5
20260904061642 78 175 0.0 4.0 0.00 0.00 0.00 74 1015.6
20260904061042 78 0 1.0 4.0 0.00 0.00 0.00 73 1015.6
20260904060545 78 175 0.0 3.0 0.00 0.00 0.00 73 1015.6
20260904060106 78 160 0.0 3.0 0.00 0.00 0.00 73 1015.5
20260904055541 78 137 0.0 4.0 0.00 0.00 0.00 73 1015.6
20260904055041 78 0 0.0 4.0 0.00 0.00 0.00 73 1015.6
20260904054613 78 142 1.0 4.0 0.00 0.00 0.00 73 1015.6
20260904054043 78 0 0.0 2.0 0.00 0.00 0.00 73 1015.7
20260904053542 78 0 0.0 2.0 0.00 0.00 0.00 72 1015.7
20260904053104 78 0 0.0 4.0 0.00 0.00 0.00 72 1015.6
20260904052543 78 146 0.0 4.0 0.00 0.00 0.00 72 1015.7
20260904052043 78 134 1.0 4.0 0.00 0.00 0.00 72 1015.7
20260904051607 78 153 0.0 2.0 0.00 0.00 0.00 72 1015.6
20260904051041 78 126 0.0 2.0 0.00 0.00 0.00 72 1015.6
20260904050542 78 0 0.0 2.0 0.00 0.00 0.00 72 1015.6
20260904050106 78 150 0.0 3.0 0.00 0.00 0.00 71 1015.6
20260904045542 78 158 0.0 3.0 0.00 0.00 0.00 71 1015.6
20260904045042 78 162 0.0 3.0 0.00 0.00 0.00 71 1015.6
20260904044601 78 160 0.0 1.0 0.00 0.00 0.00 71 1015.6
20260904044042 78 0 0.0 1.0 0.00 0.00 0.00 70 1015.6
20260904043541 78 0 0.0 0.0 0.00 0.00 0.00 71 1015.6
20260904043104 78 0 0.0 0.0 0.00 0.00 0.00 70 1015.5
20260904042542 78 0 0.0 0.0 0.00 0.00 0.00 70 1015.5
20260904042042 78 0 0.0 0.0 0.00 0.00 0.00 69 1015.6
20260904041603 79 0 0.0 0.0 0.00 0.00 0.00 69 1015.6
20260904041046 79 0 0.0 0.0 0.00 0.00 0.00 69 1015.6
20260904040544 79 0 0.0 0.0 0.00 0.00 0.00 68 1015.6
20260904040107 80 0 0.0 0.0 0.00 0.00 0.00 67 1015.6
20260904035543 80 0 0.0 0.0 0.00 0.00 0.00 66 1015.5
20260904035042 80 0 0.0 0.0 0.00 0.00 0.00 66 1015.5
20260904034603 81 0 0.0 3.0 0.00 0.00 0.00 65 1015.5
20260904034042 81 0 0.0 3.0 0.00 0.00 0.00 64 1015.5
20260904033544 81 129 0.0 3.0 0.00 0.00 0.00 64 1015.5
20260904033104 81 132 1.0 4.0 0.00 0.00 0.00 64 1015.6
20260904032543 82 141 1.0 6.0 0.00 0.00 0.00 64 1015.5
20260904032042 82 181 2.0 6.0 0.00 0.00 0.00 64 1015.5
20260904031603 81 126 1.0 4.0 0.00 0.00 0.00 64 1015.5
20260904031042 81 150 2.0 4.0 0.00 0.00 0.00 64 1015.5
20260904030545 81 133 1.0 3.0 0.00 0.00 0.00 64 1015.5
20260904030137 81 130 1.0 3.0 0.00 0.00 0.00 64 1015.3
20260904025546 81 0 0.0 3.0 0.00 0.00 0.00 64 1015.4
20260904025042 81 148 0.0 3.0 0.00 0.00 0.00 64 1015.4
20260904024611 82 0 0.0 2.0 0.00 0.00 0.00 63 1015.4
20260904024041 82 136 0.0 3.0 0.00 0.00 0.00 63 1015.2
20260904023543 82 138 1.0 3.0 0.00 0.00 0.00 62 1015.2
20260904023105 82 150 0.0 1.0 0.00 0.00 0.00 62 1015.2
20260904022542 83 0 0.0 2.0 0.00 0.00 0.00 61 1015.2
20260904022043 83 0 0.0 2.0 0.00 0.00 0.00 61 1015.1
20260904021607 83 142 1.0 2.0 0.00 0.00 0.00 60 1015.1
20260904021045 83 140 1.0 2.0 0.00 0.00 0.00 60 1015.1
20260904020543 84 134 0.0 2.0 0.00 0.00 0.00 60 1015.1
20260904015542 84 148 0.0 4.0 0.00 0.00 0.00 59 1014.9
20260904015046 84 145 1.0 4.0 0.00 0.00 0.00 59 1014.9
20260904014624 84 136 1.0 3.0 0.00 0.00 0.00 59 1014.7
20260904014043 84 146 0.0 3.0 0.00 0.00 0.00 58 1014.6
20260904013546 85 136 1.0 3.0 0.00 0.00 0.00 58 1014.6
20260904013057 85 138 0.0 2.0 0.00 0.00 0.00 57 1014.6
20260904012545 85 132 0.0 4.0 0.00 0.00 0.00 57 1014.5
20260904012043 86 136 1.0 4.0 0.00 0.00 0.00 56 1014.5
20260904011609 86 152 1.0 4.0 0.00 0.00 0.00 56 1014.4
20260904011042 86 136 1.0 4.0 0.00 0.00 0.00 56 1014.3
20260904010545 86 136 1.0 5.0 0.00 0.00 0.00 55 1014.3
20260904010104 87 140 1.0 5.0 0.00 0.00 0.00 55 1014.3
20260904005542 87 138 2.0 4.0 0.00 0.00 0.00 54 1014.3
20260904005042 88 150 1.0 6.0 0.00 0.00 0.00 54 1014.2
20260904004608 88 142 1.0 6.0 0.00 0.00 0.00 53 1014.2
20260904004042 88 98 2.0 6.0 0.00 0.00 0.00 52 1014.2
20260904003541 89 148 1.0 4.0 0.00 0.00 0.00 52 1014.2
20260904003106 90 196 1.0 4.0 0.00 0.00 0.00 50 1014.1
20260904002545 91 0 0.0 2.0 0.00 0.00 0.00 49 1014.3
20260904002044 91 0 0.0 4.0 0.00 0.00 0.00 48 1014.2
20260904001558 91 136 1.0 4.0 0.00 0.00 0.00 48 1014.1
20260904001042 92 123 0.0 1.0 0.00 0.00 0.00 47 1014.1
20260904000542 92 142 0.0 3.0 0.00 0.00 0.00 47 1014.1
20260904000125 93 154 0.0 3.0 0.00 0.00 0.00 47 1014.0
20260903235542 93 139 1.0 5.0 0.00 0.00 0.00 46 1014.1
20260903235043 93 0 0.0 7.0 0.00 0.00 0.00 46 1014.1
20260903234603 93 132 0.0 7.0 0.00 0.00 0.00 47 1014.1
20260903234045 93 229 1.0 8.0 0.00 0.00 0.00 46 1014.0
20260903233543 93 111 3.0 8.0 0.00 0.00 0.00 46 1014.0
20260903233102 93 154 3.0 9.0 0.00 0.00 0.00 46 1014.0
20260903232545 93 136 4.0 9.0 0.00 0.00 0.00 45 1014.0
20260903232042 93 132 4.0 8.0 0.00 0.00 0.00 45 1014.0
20260903231600 93 169 3.0 9.0 0.00 0.00 0.00 44 1013.9
20260903231042 93 143 3.0 9.0 0.00 0.00 0.00 45 1013.9
20260903230542 94 147 2.0 7.0 0.00 0.00 0.00 44 1013.9
20260903230100 94 121 2.0 7.0 0.00 0.00 0.00 44 1013.9
20260903225543 94 146 3.0 9.0 0.00 0.00 0.00 44 1013.9
20260903225042 94 150 3.0 9.0 0.00 0.00 0.00 44 1013.9
20260903224629 94 162 2.0 8.0 0.00 0.00 0.00 44 1013.9
20260903224044 94 123 3.0 8.0 0.00 0.00 0.00 43 1014.0
20260903223543 94 153 2.0 6.0 0.00 0.00 0.00 43 1014.0
20260903223101 95 133 3.0 6.0 0.00 0.00 0.00 43 1013.9
20260903222542 95 211 3.0 6.0 0.00 0.00 0.00 42 1014.0
20260903222043 95 118 2.0 5.0 0.00 0.00 0.00 44 1013.9
20260903221558 95 161 1.0 7.0 0.00 0.00 0.00 42 1013.8
20260903221042 96 200 3.0 8.0 0.00 0.00 0.00 42 1013.9
20260903220542 96 194 3.0 8.0 0.00 0.00 0.00 42 1013.8
20260903220108 97 197 2.0 8.0 0.00 0.00 0.00 41 1014.0
20260903215541 96 174 2.0 9.0 0.00 0.00 0.00 43 1013.9
20260903215043 96 159 4.0 9.0 0.00 0.00 0.00 41 1013.9
20260903214613 97 148 4.0 12.0 0.00 0.00 0.00 41 1014.0
20260903214042 97 160 4.0 12.0 0.00 0.00 0.00 41 1014.0
20260903213543 97 148 4.0 7.0 0.00 0.00 0.00 40 1014.0
20260903213113 97 241 3.0 6.0 0.00 0.00 0.00 39 1014.1
20260903212542 97 159 3.0 6.0 0.00 0.00 0.00 39 1014.1
20260903212043 98 204 2.0 11.0 0.00 0.00 0.00 39 1014.2
20260903211610 98 136 3.0 11.0 0.00 0.00 0.00 40 1014.3
20260903211042 97 196 4.0 10.0 0.00 0.00 0.00 39 1014.2
20260903210544 97 186 4.0 10.0 0.00 0.00 0.00 39 1014.3
20260903210128 97 175 3.0 13.0 0.00 0.00 0.00 40 1014.3
20260903205542 97 146 3.0 13.0 0.00 0.00 0.00 40 1014.2
20260903205042 97 236 2.0 8.0 0.00 0.00 0.00 40 1014.2
20260903204606 98 119 3.0 8.0 0.00 0.00 0.00 40 1014.3
20260903204044 97 120 4.0 8.0 0.00 0.00 0.00 41 1014.3
20260903203541 97 192 2.0 9.0 0.00 0.00 0.00 42 1014.3
20260903203113 97 225 3.0 9.0 0.00 0.00 0.00 42 1014.4
20260903202542 97 137 4.0 9.0 0.00 0.00 0.00 40 1014.4
20260903202043 97 173 3.0 8.0 0.00 0.00 0.00 42 1014.6
20260903201558 97 221 3.0 11.0 0.00 0.00 0.00 44 1014.5
20260903201042 97 198 4.0 12.0 0.00 0.00 0.00 42 1014.5
20260903200542 97 167 4.0 12.0 0.00 0.00 0.00 42 1014.7
20260903200108 96 140 4.0 11.0 0.00 0.00 0.00 43 1014.6
20260903195546 96 254 3.0 12.0 0.00 0.00 0.00 44 1014.7
20260903195043 96 156 5.0 12.0 0.00 0.00 0.00 43 1014.6
20260903194603 96 133 5.0 10.0 0.00 0.00 0.00 43 1014.7
20260903194041 96 155 3.0 7.0 0.00 0.00 0.00 43 1014.8
20260903193542 96 165 2.0 9.0 0.00 0.00 0.00 44 1015.0
20260903193110 96 190 3.0 9.0 0.00 0.00 0.00 46 1015.1
20260903192541 95 165 3.0 8.0 0.00 0.00 0.00 44 1015.1
20260903192043 95 129 4.0 10.0 0.00 0.00 0.00 43 1015.1
20260903191606 95 127 4.0 10.0 0.00 0.00 0.00 47 1015.2
20260903191042 95 173 3.0 9.0 0.00 0.00 0.00 46 1015.3
20260903190542 95 100 2.0 7.0 0.00 0.00 0.00 45 1015.3
20260903190107 95 213 3.0 8.0 0.00 0.00 0.00 47 1015.4
20260903185542 95 161 3.0 9.0 0.00 0.00 0.00 48 1015.5
20260903185042 95 197 3.0 9.0 0.00 0.00 0.00 48 1015.5
20260903184600 94 127 3.0 10.0 0.00 0.00 0.00 48 1015.6
20260903184046 94 190 3.0 10.0 0.00 0.00 0.00 48 1015.6
20260903183541 94 170 2.0 9.0 0.00 0.00 0.00 48 1015.7
20260903183101 94 265 3.0 9.0 0.00 0.00 0.00 49 1015.8
20260903182547 94 210 4.0 8.0 0.00 0.00 0.00 48 1015.9
20260903182042 94 227 3.0 11.0 0.00 0.00 0.00 48 1015.9
20260903181601 93 225 3.0 11.0 0.00 0.00 0.00 48 1016.0
20260903181042 94 233 3.0 9.0 0.00 0.00 0.00 47 1016.1
20260903180543 94 231 3.0 8.0 0.00 0.00 0.00 48 1016.1
20260903180107 94 140 3.0 8.0 0.00 0.00 0.00 49 1016.2
20260903175542 93 166 3.0 8.0 0.00 0.00 0.00 49 1016.3
20260903175255 93 161 3.0 8.0 0.00 0.00 0.00 49 1016.4
20260903174603 93 211 3.0 9.0 0.00 0.00 0.00 51 1016.5
20260903174045 93 155 4.0 10.0 0.00 0.00 0.00 49 1016.5
20260903173544 93 175 4.0 10.0 0.00 0.00 0.00 49 1016.6
20260903173101 93 198 2.0 10.0 0.00 0.00 0.00 53 1016.7
20260903172543 92 140 4.0 10.0 0.00 0.00 0.00 50 1016.7
20260903172043 92 138 4.0 10.0 0.00 0.00 0.00 49 1016.8
20260903171559 92 196 3.0 9.0 0.00 0.00 0.00 51 1016.8
20260903171042 92 149 4.0 9.0 0.00 0.00 0.00 51 1016.8
20260903170542 92 216 4.0 9.0 0.00 0.00 0.00 50 1017.0
20260903170100 91 186 4.0 10.0 0.00 0.00 0.00 52 1017.1
20260903165543 91 188 4.0 11.0 0.00 0.00 0.00 52 1017.1
20260903165042 91 132 3.0 11.0 0.00 0.00 0.00 53 1017.1
20260903164625 91 163 4.0 10.0 0.00 0.00 0.00 52 1017.2
20260903164042 91 140 3.0 10.0 0.00 0.00 0.00 55 1017.2
20260903163542 91 186 2.0 11.0 0.00 0.00 0.00 53 1017.3
20260903163108 91 239 4.0 11.0 0.00 0.00 0.00 53 1017.2
20260903162543 90 180 4.0 10.0 0.00 0.00 0.00 54 1017.2
20260903162043 90 190 5.0 10.0 0.00 0.00 0.00 54 1017.3
20260903161601 90 169 4.0 11.0 0.00 0.00 0.00 56 1017.3
20260903161042 90 184 4.0 11.0 0.00 0.00 0.00 56 1017.4
20260903160542 90 172 4.0 11.0 0.00 0.00 0.00 56 1017.4
20260903160129 90 155 4.0 11.0 0.00 0.00 0.00 57 1017.5
20260903155544 90 196 3.0 11.0 0.00 0.00 0.00 57 1017.5
20260903155044 89 180 4.0 10.0 0.00 0.00 0.00 58 1017.5
20260903154610 89 213 4.0 10.0 0.00 0.00 0.00 59 1017.5
20260903154043 89 219 3.0 10.0 0.00 0.00 0.00 58 1017.5
20260903153545 88 192 3.0 11.0 0.00 0.00 0.00 59 1017.5
20260903153101 88 206 4.0 11.0 0.00 0.00 0.00 59 1017.5
20260903152543 88 236 6.0 11.0 0.00 0.00 0.00 60 1017.5
20260903152043 88 171 5.0 11.0 0.00 0.00 0.00 60 1017.5
20260903151608 88 210 5.0 11.0 0.00 0.00 0.00 60 1017.5
20260903151042 88 176 3.0 11.0 0.00 0.00 0.00 61 1017.5
20260903150542 87 196 4.0 11.0 0.00 0.00 0.00 63 1017.6
20260903150113 87 156 4.0 9.0 0.00 0.00 0.00 64 1017.5
20260903145546 87 169 3.0 8.0 0.00 0.00 0.00 64 1017.5
20260903145042 86 138 3.0 7.0 0.00 0.00 0.00 65 1017.5
20260903144606 86 160 3.0 10.0 0.00 0.00 0.00 65 1017.5
20260903144046 86 210 3.0 12.0 0.00 0.00 0.00 65 1017.6
20260903143541 85 221 3.0 12.0 0.00 0.00 0.00 65 1017.5
20260903143110 85 211 3.0 12.0 0.00 0.00 0.00 66 1017.6
20260903142543 84 186 3.0 9.0 0.00 0.00 0.00 68 1017.6
20260903142042 84 223 3.0 9.0 0.00 0.00 0.00 68 1017.7
20260903141610 84 146 4.0 9.0 0.00 0.00 0.00 69 1017.6
20260903141042 83 139 3.0 7.0 0.00 0.00 0.00 70 1017.6
20260903140544 83 214 2.0 7.0 0.00 0.00 0.00 72 1017.6
20260903140109 82 200 2.0 9.0 0.00 0.00 0.00 72 1017.7
20260903135543 82 196 1.0 9.0 0.00 0.00 0.00 73 1017.7
20260903135043 81 169 1.0 9.0 0.00 0.00 0.00 75 1017.8
20260903134605 81 196 2.0 9.0 0.00 0.00 0.00 75 1017.8
20260903134043 80 189 2.0 4.0 0.00 0.00 0.00 77 1017.8
20260903133544 79 145 1.0 3.0 0.00 0.00 0.00 79 1017.8
20260903133100 78 155 1.0 5.0 0.00 0.00 0.00 80 1017.8
20260903132543 78 158 1.0 5.0 0.00 0.00 0.00 80 1017.8
20260903132042 77 221 0.0 5.0 0.00 0.00 0.00 81 1017.9
20260903131601 77 167 1.0 5.0 0.00 0.00 0.00 81 1017.8
20260903131042 77 140 1.0 5.0 0.00 0.00 0.00 82 1017.8
20260903130542 76 157 0.0 3.0 0.00 0.00 0.00 83 1017.8
20260903130059 76 159 0.0 1.0 0.00 0.00 0.00 83 1017.6
20260903125542 75 0 0.0 1.0 0.00 0.00 0.00 84 1017.7
20260903125042 75 0 0.0 2.0 0.00 0.00 0.00 84 1017.6
20260903124606 75 140 0.0 2.0 0.00 0.00 0.00 84 1017.5
20260903124042 74 163 0.0 1.0 0.00 0.00 0.00 84 1017.5
20260903123541 74 0 0.0 1.0 0.00 0.00 0.00 85 1017.6
20260903123059 74 141 0.0 1.0 0.00 0.00 0.00 85 1017.6
20260903122543 74 134 0.0 1.0 0.00 0.00 0.00 85 1017.5
20260903122043 74 0 0.0 1.0 0.00 0.00 0.00 85 1017.6
20260903121558 74 146 0.0 1.0 0.00 0.00 0.00 85 1017.6
20260903121043 74 0 0.0 2.0 0.00 0.00 0.00 85 1017.6
20260903120542 74 0 0.0 2.0 0.00 0.00 0.00 85 1017.6
20260903120107 74 0 0.0 2.0 0.00 0.00 0.00 85 1017.6
20260903115542 74 0 0.0 1.0 0.00 0.00 0.00 84 1017.6
20260903115043 74 0 0.0 1.0 0.00 0.00 0.00 84 1017.5
20260903114603 74 0 0.0 1.0 0.00 0.00 0.00 84 1017.5
20260903114043 74 146 0.0 1.0 0.00 0.00 0.00 84 1017.4
20260903113542 74 146 0.0 2.0 0.00 0.00 0.00 84 1017.4
20260903113101 74 176 0.0 4.0 0.00 0.00 0.00 83 1017.3
20260903112544 74 196 0.0 4.0 0.00 0.00 0.00 83 1017.4
20260903112044 74 194 0.0 2.0 0.00 0.00 0.00 83 1017.3
20260903111559 74 0 0.0 1.0 0.00 0.00 0.00 83 1017.3
20260903111042 75 153 0.0 1.0 0.00 0.00 0.00 83 1017.2
20260903110542 75 0 0.0 3.0 0.00 0.00 0.00 82 1017.2
20260903105543 75 0 1.0 3.0 0.00 0.00 0.00 82 1017.1
20260903105043 75 160 0.0 3.0 0.00 0.00 0.00 82 1017.1
20260903104605 75 168 0.0 1.0 0.00 0.00 0.00 82 1017.1
20260903104042 75 0 0.0 1.0 0.00 0.00 0.00 82 1017.0
20260903103542 75 0 0.0 2.0 0.00 0.00 0.00 82 1017.0
20260903103110 75 0 0.0 2.0 0.00 0.00 0.00 82 1017.0
20260903102546 75 0 0.0 1.0 0.00 0.00 0.00 81 1017.0
20260903102042 75 0 0.0 3.0 0.00 0.00 0.00 81 1017.0
20260903101611 75 0 0.0 3.0 0.00 0.00 0.00 81 1017.0
20260903101043 76 138 0.0 2.0 0.00 0.00 0.00 80 1016.8
20260903100543 76 141 0.0 2.0 0.00 0.00 0.00 80 1016.9
20260903100104 76 144 0.0 4.0 0.00 0.00 0.00 80 1017.0
20260903095542 76 160 1.0 4.0 0.00 0.00 0.00 80 1017.0
20260903095042 76 140 1.0 4.0 0.00 0.00 0.00 80 1016.9
20260903094606 76 138 0.0 2.0 0.00 0.00 0.00 80 1016.8
20260903094044 76 137 0.0 1.0 0.00 0.00 0.00 80 1016.8
20260903093544 76 120 0.0 3.0 0.00 0.00 0.00 79 1016.8
20260903093110 76 139 1.0 3.0 0.00 0.00 0.00 79 1016.9
20260903092542 76 142 1.0 2.0 0.00 0.00 0.00 80 1016.8